Member area
Imprimable
Visé, 13/05/2018, BEL - Maasmarathon de la Basse-Meuse
List of reports > Marathon - Après 21km
Search: Page: [1] 2
539 Entries
 
Complains are not accepted anymore. Results are final.
Category
PosNrNameAgeNATTeamRealTimeTkmMoy.PlaceNameCity
1.4EL MOUAZIZ Abdelhadi41MAR1:11:203:24 17.671h40ESPAKAT?l?chargez votre diplome!
2.6WEIMINGA Roel26NLD1:12:213:27 17.421senHERSTALT?l?chargez votre diplome!
3.5STITZINGER Patrick37NLDMAASRUBBERS1:12:213:27 17.421h35EIJSDENT?l?chargez votre diplome!
4.628DEMIRKAZAN Mikail25TURMJ SPORT1:14:473:34 16.852senT?l?chargez votre diplome!
5.14PHILIPPE Patrick49BELJOG IN ATTITUDE1:14:473:34 16.851h45LIÈGET?l?chargez votre diplome!
6.607MATHOT Michel44BEL1:14:473:34 16.852h40LES TAILLEST?l?chargez votre diplome!
7.446NID Rumphakwaen50BEL1:14:473:34 16.851h50GRIMBERGENT?l?chargez votre diplome!
8.152PASQUE Cedric39BELLES BOUFFIOLS1:16:123:38 16.542h35BOUFFIOULXT?l?chargez votre diplome!
9.33DEWILDE Kristof39BELGAVERTRIMMERS1:16:213:39 16.503h35KUURNET?l?chargez votre diplome!
10.273WITHOFS Peter35BEL1:16:213:39 16.504h35DIEPENBEEKT?l?chargez votre diplome!
11.567SCHIFFELERS Ward39NLDAV UNITAS1:16:433:40 16.435h35SITTARDT?l?chargez votre diplome!
12.427DEXTERS Dirk33BEL1:17:103:41 16.333senMAASMECHELENT?l?chargez votre diplome!
13.1016MONIOTTE Stéphane45BELNOS ENFANTS CAR1:17:163:41 16.312h45BRUXELLEST?l?chargez votre diplome!
14.428LAMBERT Birger35BEL1:17:173:41 16.316h35BLANKENBERGET?l?chargez votre diplome!
15.529MATHOT Patrice51BEL1:17:423:42 16.222h50JAMIOULXT?l?chargez votre diplome!
16.506DAMBLON Johnathab40BEL1:17:423:42 16.223h40ATHT?l?chargez votre diplome!
17.25GUISSART Alain46BEL1:18:103:44 16.123h45BLEGNYT?l?chargez votre diplome!
18.84PETIT Pascal46BEL1:19:443:48 15.814h45LIEGET?l?chargez votre diplome!
19.449PALFI Janos41HUN1:20:153:50 15.704h40RIEMSTT?l?chargez votre diplome!
20.450GERON David43BELCHC1:20:393:51 15.635h40AUBELT?l?chargez votre diplome!
21.431BLANCHY Regis24BELCHC1:20:393:51 15.634senOLNET?l?chargez votre diplome!
22.220BELLEFROID Pieter31BEL1:20:393:51 15.635senBORGLOONT?l?chargez votre diplome!
23.457LOURTIE Thibaut33BELCHC1:20:393:51 15.626senHERVET?l?chargez votre diplome!
24.260MOMMEN Pascal43BEL1:20:393:51 15.626h40HASSELTT?l?chargez votre diplome!
25.315NAESSENS Steven38BEL1:20:393:51 15.627h35WESTVLETERENT?l?chargez votre diplome!
26.263RICHARDSON Neil40GBR1:20:393:51 15.627h40BATHT?l?chargez votre diplome!
27.270VANGENEUGDEN Raf42BEL1:20:403:51 15.628h40HASSELTT?l?chargez votre diplome!
28.415JOOS Pauwel52BEL1:20:403:51 15.623h50MALDEGEMT?l?chargez votre diplome!
29.357NIKI Steenkamp45ZAF1:20:483:51 15.605h45STELLENBOSCHT?l?chargez votre diplome!
30.38MILLIS Andrew59GBR1:20:483:51 15.601h55FLEETT?l?chargez votre diplome!
31.100DELERS Maximilien32BELTHEODO TEMPO1:20:503:51 15.597senSOIGNIEST?l?chargez votre diplome!
32.406LECLERCQ Philippe41BELTRIATHLIEGE1:21:033:52 15.559h40LIEGET?l?chargez votre diplome!
33.187ESSABRI Nasser55BELSERUNNERS1:21:043:52 15.552h55SERAINGT?l?chargez votre diplome!
34.588HERMAN Christophe34FRA1:21:123:52 15.528senT?l?chargez votre diplome!
35.585KOEN Sommers49BEL1:21:383:54 15.446h45T?l?chargez votre diplome!
36.436VANDEBEEK Patrick44BELAC BERTEM - KNO1:21:493:54 15.4010h40AARSCHOTT?l?chargez votre diplome!
37.626LEUS Frankie56BEL1:21:493:54 15.403h55HERENTHOUTT?l?chargez votre diplome!
38.487BRANTS Philipe42BEL1:21:493:54 15.4011h40PUTTET?l?chargez votre diplome!
39.541GREGOIRE Joel43BELTEAM JARDIN DIV1:21:503:54 15.4012h40GRIVEGNEET?l?chargez votre diplome!
40.316GALLE Koen35BEL1:21:503:54 15.408h35SCHAARBEEKT?l?chargez votre diplome!
41.323MANTIONE Calogero39BEL1:21:513:54 15.399h35REBECQT?l?chargez votre diplome!
42.48THEUNISSEN Iwan46NLDLANDGRAAF1:21:533:54 15.397h45LANDGRAAFT?l?chargez votre diplome!
43.326PLOUM Roy42NLDSTB LANDGRAAF1:21:533:54 15.3913h40LANDGRAAFT?l?chargez votre diplome!
44.513REYNAERTS Dries34BEL1:21:533:54 15.399senWOLVERTEMT?l?chargez votre diplome!
45.390REYNAERTS Bram36BEL1:21:533:54 15.3910h35HALLET?l?chargez votre diplome!
46.176HOOL Frans53NLDATLETIEK AVON H1:21:553:55 15.384h50MERKELBEEKT?l?chargez votre diplome!
47.451DEWAIDE Antoni45BELAD1:21:593:55 15.378h45TINLOTT?l?chargez votre diplome!
48.503ROETS Eric48BEL1:22:323:56 15.279h45BEKKEVOORTT?l?chargez votre diplome!
49.117DAEMS Carl54BEL1:23:163:58 15.135h50VIERSELT?l?chargez votre diplome!
50.552LEHANCE Pascal46BELRFCL1:23:414:00 15.0610h45T?l?chargez votre diplome!
51.460DE PAUW Tim36BEL1:23:414:00 15.0611h35DIESTT?l?chargez votre diplome!
52.341DIERCKX Gert43BEL1:23:424:00 15.0614h40WESTERLOT?l?chargez votre diplome!
53.564FCHAMPION Juilet39BELTRAKKS1:23:484:00 15.041f35LA HULPET?l?chargez votre diplome!
54.286COLEMONTS Gilles45BELMANON FOREVER1:24:354:02 14.9011h45HINGEONT?l?chargez votre diplome!
55.231LANGENUS Freddy63BELGESHAALOPERS1:24:464:03 14.871h60KEERBERGENT?l?chargez votre diplome!
56.612MAILLARD Guillaume29FRA1:24:494:03 14.8610senT?l?chargez votre diplome!
57.623ROSIER Benoit46BEL1:24:494:03 14.8612h45FLORENVILLET?l?chargez votre diplome!
58.562DE RIDDER Ivo50BELSPIRIDON AALST1:24:534:03 14.846h50HOFSTADET?l?chargez votre diplome!
59.478BOSSAER Patrick54BELMMC1:25:044:04 14.817h50HOEGAARDENT?l?chargez votre diplome!
60.421SCHOCKAERT Hedwig58BELSPIRIDON AALST1:25:104:04 14.804h55HOFSTADE-AALSTT?l?chargez votre diplome!
61.251DELCROIX Jerome40FRAJEROME DELCROIX1:25:104:04 14.7915h40PONT SUR SAMBRET?l?chargez votre diplome!
62.44DESCAMPS François37BELTHÉODO TEMPO1:25:124:04 14.7912h35MONTIGNIES LEZ LENST?l?chargez votre diplome!
63.458COSSEMENT Steven44BELGAVERTRIMMERS1:25:344:05 14.7316h40HARELBEKET?l?chargez votre diplome!
64.387DAS Bert44BEL1:26:274:07 14.5817h40LINKHOUTT?l?chargez votre diplome!
65.548PIRNAY Julien32BEL1:26:284:08 14.5711senBAELENT?l?chargez votre diplome!
66.52LEPLAE Charles38BEL1:26:294:08 14.5713h35CHASTRET?l?chargez votre diplome!
67.600MUYLKENS Thibaut28BEL1:26:294:08 14.5712senHERVET?l?chargez votre diplome!
68.83COSTERMANS Peter37BEL1:26:294:08 14.5714h35HELCHTERENT?l?chargez votre diplome!
69.198CHARLIER Pierre47BEL1:26:294:08 14.5713h45BILSTAINT?l?chargez votre diplome!
70.394WESLEY Zajc26BELRUN&FUN GENK1:27:034:09 14.4813senGENKT?l?chargez votre diplome!
71.138DAVREUX Benoit43BEL1:27:354:11 14.3918h404880T?l?chargez votre diplome!
72.57OLSSON Mikael48SWESPORTIVAMENTE1:27:524:12 14.3414h45BRUXELLEST?l?chargez votre diplome!
73.462ROELANTS Luc55BEL1:28:074:12 14.305h55WILSELET?l?chargez votre diplome!
74.637SEYNAEVE Xavier39BEL1:28:344:14 14.2315h35T?l?chargez votre diplome!
75.46HAEGHEBAERT Peter55BELFLAC ROESELARE1:32:044:24 13.696h55ROESELARET?l?chargez votre diplome!
76.366TERMONIA Piet47BEL1:32:154:24 13.6615h45GERAARDSBERGENT?l?chargez votre diplome!
77.70DELHEZ Claude58BELJIA1:32:154:24 13.667h55BONCELLEST?l?chargez votre diplome!
78.420DENDAL Didier55BEL1:32:514:26 13.578h55LIÈGET?l?chargez votre diplome!
79.592JANSEN Chris49NLD1:32:574:26 13.5616h45T?l?chargez votre diplome!
80.595MACHIELSEN Robbie45NLDAV SPRINT1:32:594:26 13.5517h45T?l?chargez votre diplome!
81.590OGER Stephan37BEL1:32:594:26 13.5516h35T?l?chargez votre diplome!
82.533MELARD Jean-Emile36BEL1:33:044:26 13.5417h35JUPRELLET?l?chargez votre diplome!
83.68VOETS Ronny50NLD1:33:294:28 13.488h50BESTT?l?chargez votre diplome!
84.275FRAITURE Thomas34BELTHEODOTEMPO1:33:304:28 13.4814senSOIGNIEST?l?chargez votre diplome!
85.578SPINOSA Anthony33BEL1:33:314:28 13.4715senHERMÉET?l?chargez votre diplome!
86.476VAN NESTE Leander36BEL1:33:334:28 13.4718h35HOEGAARDENT?l?chargez votre diplome!
87.202EILANDER Eric34NLD1:33:334:28 13.4716senHOOGEVEENT?l?chargez votre diplome!
88.356DE COCK Michael44BEL1:33:344:28 13.4719h40CHASTRET?l?chargez votre diplome!
89.461WALLÉE Alain62BELTENDONS LA HULP1:33:404:28 13.452h60LA HULPET?l?chargez votre diplome!
90.345DE PAOLIS Julien27BEL1:33:494:29 13.4317senSAINT-NICOLAST?l?chargez votre diplome!
91.596LEMPERS Jos61NLD1:34:294:30 13.343h60T?l?chargez votre diplome!
92.248BECK Geoffrey44BELLES FOULLÉES DU1:34:344:31 13.3220h40TIHANGET?l?chargez votre diplome!
93.624GUSTIN Steve38BEL1:34:354:31 13.3219h35HUYT?l?chargez votre diplome!
94.581VAN VAERENBERGH Filip28BEL1:34:364:31 13.3218senSINT-NIKLAAST?l?chargez votre diplome!
95.302GOUDKADE Danny33NLDDANNY GOUDKADE1:34:394:31 13.3119senMEERSSENT?l?chargez votre diplome!
96.608VAES Kevin29BEL1:34:434:31 13.3120senFOURONT?l?chargez votre diplome!
97.521KERSTENS Michel55BEL1:34:434:31 13.309h55BEERSET?l?chargez votre diplome!
98.79VAN GHELUWE Rémi38FRAJACO1:34:434:31 13.3020h35LA NEUVILLE AUX JOUTEST?l?chargez votre diplome!
99.627CRYNS Bart38BEL1:34:434:31 13.3021h35OVERPELTT?l?chargez votre diplome!
100.95MARTIN Michel46BELTEAM PRIVILÈGE 1:34:444:31 13.3018h45MARCHE-EN-FAMENNET?l?chargez votre diplome!
101.500KÉRIS Roland49BEL1:34:444:31 13.3019h45THIMISTER-CLERMONTT?l?chargez votre diplome!
102.498JOHN Hermans53NLDMAASRUNNERS1:34:444:31 13.309h50MAASTRICHTT?l?chargez votre diplome!
103.88VAN HEERDE Gerard34NLD1:34:444:31 13.3021senNIJMEGENT?l?chargez votre diplome!
104.593VAN DER BORGH Roger44NLD1:34:444:31 13.3021h40T?l?chargez votre diplome!
105.143GEETS Kris48BELADD1:34:444:31 13.3020h45VLIERMAALROOTT?l?chargez votre diplome!
106.558GOMZE Michel51BELSKINFIT1:34:444:31 13.3010h50ENSIVALT?l?chargez votre diplome!
107.410POESEN Frank39BEL1:34:484:31 13.2922h35MUNSTERBILZENT?l?chargez votre diplome!
108.250CEUPPENS Joeri42BEL1:34:484:31 13.2922h40ROTSELAART?l?chargez votre diplome!
109.272WATY Dimitri38BEL1:34:494:31 13.2923h35MALMEDYT?l?chargez votre diplome!
110.572HOGGE Farncois31BEL1:34:494:31 13.2922senT?l?chargez votre diplome!
111.455LEINERS Luc28BELCHC1:34:494:31 13.2923senVOROUX-LEZ-LIERST?l?chargez votre diplome!
112.619FORÊT Michaël35BEL1:34:504:31 13.2924h35OUPEYET?l?chargez votre diplome!
113.175FUCHS Thomas43DEU1:34:504:31 13.2923h40HERZOGENRATHT?l?chargez votre diplome!
114.550GREK Vincent54BELCABW-NAC1:34:524:32 13.2811h50NIVELLEST?l?chargez votre diplome!
115.527THOONEN Erik60BELGEMS JOGGERS1:34:524:32 13.284h60DIEPENBEEKT?l?chargez votre diplome!
116.380TOUBEAU Julien38BELWE TRAIL1:35:004:32 13.2625h35VALENCIENNEST?l?chargez votre diplome!
117.617JAMAR Cedric32BEL1:35:014:32 13.2624senT?l?chargez votre diplome!
118.50ABEN Filip41BEL1:35:014:32 13.2624h40HASSELTT?l?chargez votre diplome!
119.534RENAULD Michel42BEL1:35:054:32 13.2525h40WARSSAGET?l?chargez votre diplome!
120.85CHAPPIN Michel31NLD1:35:064:32 13.2525senMAASTRICHTT?l?chargez votre diplome!
121.264ROTTIERS Daniel44BEL1:35:134:33 13.2426h40KESSEL-LOT?l?chargez votre diplome!
122.55WESTERHOFF Frank51DEU1:35:204:33 13.2212h50THEDINGHAUSENT?l?chargez votre diplome!
123.430FOULON Olivier44FRA1:35:444:34 13.1627h40HÉRINT?l?chargez votre diplome!
124.216DELEYE Brecht33BEL1:35:544:34 13.1426senSINT-ELOOIS-WINKELT?l?chargez votre diplome!
125.468QUADFLIEG Marc61BELMACD1:36:044:35 13.125h60MAASMECHELENT?l?chargez votre diplome!
126.409JAN Brouwers57NLD1:36:174:36 13.0910h55BRUNSSUMT?l?chargez votre diplome!
127.636PIRSON Stephane50BELRUNNERS BERNEAU1:36:254:36 13.0713h50HEURE-LE-ROMAINT?l?chargez votre diplome!
128.43HENDRICÉ Gilles50BEL1:36:274:36 13.0614h50CHAUDFONTAINET?l?chargez votre diplome!
129.371VAN GINKEL Alex28NLD1:36:384:37 13.0427senEINDHOVENT?l?chargez votre diplome!
130.364TOM Elsten33NLD1:36:394:37 13.0428senEINDHOVENT?l?chargez votre diplome!
131.26SERFASS Pierre52FRAHAGER1:36:424:37 13.0315h50NIEDERSOULTZBACHT?l?chargez votre diplome!
132.294MANNEKENS Stéphane54BEL1:36:424:37 13.0316h50TIENENT?l?chargez votre diplome!
133.295MOREEL Wout40BELTIENSE JOGGERS1:36:424:37 13.0328h40TIENENT?l?chargez votre diplome!
134.241VANHAEZEBROUCK Kurt50BEL1:36:474:37 13.0217h50IZEGEMT?l?chargez votre diplome!
135.346SPITAEL Jan54BELALVA1:37:034:38 12.9818h50HOFSTADET?l?chargez votre diplome!
136.215CANTAERT Joris29BEL1:37:074:38 12.9729senGENTT?l?chargez votre diplome!
137.425DORCHAIN Luc54BELJEM ACTIVE1:37:234:39 12.9419h50MOUSTIER SUR SAMBRET?l?chargez votre diplome!
138.499WUIDARD Jean-Luc56BEL1:37:274:39 12.9311h55ALLEURT?l?chargez votre diplome!
139.222HEIJMAN Rob55NLD1:37:294:39 12.9312h55BUGGENUMT?l?chargez votre diplome!
140.469ENEMAN Bart44BEL1:37:344:39 12.9129h40ZOLDERT?l?chargez votre diplome!
141.505CRAHAY Cédric42BEL1:37:524:40 12.8830h40SPRIMONTT?l?chargez votre diplome!
142.563NOPERE Stephane54BEL1:37:594:40 12.8620h50BOUTERSEMT?l?chargez votre diplome!
143.359VRANCKX Robin19BEL1:38:034:41 12.8530senWESTERLOT?l?chargez votre diplome!
144.305JULLIEN Dominique57FRA1:38:204:41 12.8213h55AMIENST?l?chargez votre diplome!
145.437MCCARTHY Mike53GBRSEVENOAKS AC1:38:214:41 12.8121h50LOOSDRECHTT?l?chargez votre diplome!
146.594KLASENS Frank53NLD1:38:214:41 12.8122h50T?l?chargez votre diplome!
147.544VERSCHUEREN Peter38BEL1:38:244:42 12.8026h35BIERBEEKT?l?chargez votre diplome!
148.526WUIDARD Nicolas31BEL1:38:294:42 12.8031senPETIT-RECHAINT?l?chargez votre diplome!
149.570TONUCCI Laurent35BEL1:38:314:42 12.7927h35HOUTAIN-SAINT-SIMÉONT?l?chargez votre diplome!
150.554URBANI Jean Marc50BELSER ATHL1:38:314:42 12.7923h50OUGRÉET?l?chargez votre diplome!
151.89DERKS Ivo39NLD1:38:334:42 12.7928h35MALDENT?l?chargez votre diplome!
152.203FEPEMA Uti31NLD1:38:334:42 12.791damGRONINGENT?l?chargez votre diplome!
153.137CONINX Carl30BEL1:38:394:42 12.7732senWESTMALLET?l?chargez votre diplome!
154.348SANFACON Jean-Yves55CAN1:38:464:43 12.7614h55QUEBECT?l?chargez votre diplome!
155.512COLARD Andrew40BELWORLDLINE1:38:494:43 12.7531h40LIÈGET?l?chargez votre diplome!
156.583AERTS Johan49BELKC-TEAM1:38:514:43 12.7521h45LAAKDALT?l?chargez votre diplome!
157.388BAILLIEN Kristof36BEL1:38:554:43 12.7429h35BORGLOONT?l?chargez votre diplome!
158.473SEYNAEVE Laurent47BEL1:38:574:43 12.7322h45ANST?l?chargez votre diplome!
159.299KINALI Arif33BEL1:39:044:44 12.7233senMEISET?l?chargez votre diplome!
160.464BRANDSMA Willy52NLD1:39:054:44 12.7224h50WITTEMT?l?chargez votre diplome!
161.108VAN DER MEULEN Nathal52NLDACHILLES TOP KE1:39:194:44 12.6925h50MECHELENT?l?chargez votre diplome!
162.227BEDLEEM Jerome47FRA1:39:264:45 12.6723h45PARIST?l?chargez votre diplome!
163.65HARDY Geoffrey45BEL1:39:394:45 12.6524h45OUPEYET?l?chargez votre diplome!
164.337LE BOULENGE Anthony34BEL1:39:394:45 12.6534senVISET?l?chargez votre diplome!
165.185GIACOMO Cugnini45ITA1:39:534:46 12.6225h45BRUXELLEST?l?chargez votre diplome!
166.254GUILMAIN Jérôme41BEL1:39:544:46 12.6132h40ANTHEITT?l?chargez votre diplome!
167.153FREMMERIE Mieke48BELMIEKE REMMERIE1:39:544:46 12.611f45HOOGLEDET?l?chargez votre diplome!
168.149PACE Carmine60ITAMONTEDORO NOCI1:39:544:46 12.616h60NOCIT?l?chargez votre diplome!
169.334FLAWARREE Lola26BEL1:39:544:46 12.612damLIERNEUXT?l?chargez votre diplome!
170.354WAUTERS Thomas28BEL1:39:554:46 12.6135senFIZE-LE-MARSALT?l?chargez votre diplome!
171.271FVERMEULEN Melanie42NLDACHILLESTOP1:39:554:46 12.611f40LANDGRAAFT?l?chargez votre diplome!
172.281FFLORIE Sandra43NLDACHILLES-TOP KE1:39:554:46 12.612f40KERKRADET?l?chargez votre diplome!
173.287VROEMEN Rene58NLD1:39:554:46 12.6115h55MAASTRICHTT?l?chargez votre diplome!
174.80NICOLAÏ Robert56BEL1:39:564:46 12.6116h55MONST?l?chargez votre diplome!
175.243WILT Michael40USA1:40:174:47 12.5733h40AUSTINT?l?chargez votre diplome!
176.542MARIS Geert47BEL1:40:284:48 12.5426h45ZONHOVENT?l?chargez votre diplome!
177.189MILO Sven50BEL1:40:424:48 12.5126h50GERAARDSBERGENT?l?chargez votre diplome!
178.133ARMSTRONG Tom58GBR1:40:444:48 12.5117h55LONDONT?l?chargez votre diplome!
179.319BOURGEOIS Stéphane48BELFORMYFIT1:40:464:48 12.5027h45PIÉTONT?l?chargez votre diplome!
180.369KLEIJ Henk56NLD1:40:494:49 12.5018h55ROTTERDAMT?l?chargez votre diplome!
181.64PETIT Fredric49NLD1:40:494:49 12.5028h45MAASTRICHTT?l?chargez votre diplome!
182.22GREENSHIELDS Martin51GBR1:40:494:49 12.5027h50EIJSDENT?l?chargez votre diplome!
183.361SMEETS Joel50BEL1:40:504:49 12.5028h50STEMBERTT?l?chargez votre diplome!
184.367CREMERS Stijn32BEL1:40:514:49 12.4936senBILZENT?l?chargez votre diplome!
185.123OMAZIC Pierre44BEL1:40:524:49 12.4934h40SAINT NICOLAST?l?chargez votre diplome!
186.154SCHOLLAERT Geoffrey41BEL1:41:044:49 12.4735h40FORESTT?l?chargez votre diplome!
187.523DENIS Sylvain29BELKNAUF1:41:044:49 12.4737senANDENNET?l?chargez votre diplome!
188.491FKERREMANS Sonja49BEL1:41:074:49 12.462f45BURCHTT?l?chargez votre diplome!
189.490THOEN Luc51BEL1:41:074:49 12.4629h50BURCHTT?l?chargez votre diplome!
190.289SCOTT Mark53BEL1:41:094:49 12.4630h50APPELTERRET?l?chargez votre diplome!
191.630MCKEEVER John49BEL1:41:094:49 12.4629h45T?l?chargez votre diplome!
192.224OLIVIER Arnaud51FRA1:41:104:50 12.4531h50LILLET?l?chargez votre diplome!
193.163FBURRICHTER Brenda34NLD1:41:224:50 12.433damMAASTRICHTT?l?chargez votre diplome!
194.63ALBERS Frédéric52BEL1:41:224:50 12.4332h50EGHEZÉET?l?chargez votre diplome!
195.306PIOT Hervé30BELPIOT1:41:404:51 12.3938senVISÉT?l?chargez votre diplome!
196.419CANEVE Christophe35BELJIA1:41:414:51 12.3930h35FLERONT?l?chargez votre diplome!
197.543JOLIS Martin20BEL1:41:464:51 12.3839senLOUVEIGNÉT?l?chargez votre diplome!
198.223MATHEÏ Bart42BEL1:41:504:51 12.3736h40KORTENBERGT?l?chargez votre diplome!
199.434DURIEUX Rodolphe42BELCHC1:41:524:52 12.3737h40BEAUFAYST?l?chargez votre diplome!
200.221FAYS Sebastien39BEL1:41:524:52 12.3731h35ANST?l?chargez votre diplome!
201.549FJOHNSON Mirja42FIN1:41:534:52 12.373f40RIXENSARTT?l?chargez votre diplome!
202.404VANHUYSE Pedro37BEL1:41:564:52 12.3632h35RUMBEKET?l?chargez votre diplome!
203.69VERBRUGGEN Xavier55BEL1:41:574:52 12.3619h55ZULTET?l?chargez votre diplome!
204.517FSABLONE Oriana58BEL1:42:074:52 12.341f55AYWAILLET?l?chargez votre diplome!
205.537BODSON Julien33BEL1:42:094:52 12.3440senALLEURT?l?chargez votre diplome!
206.601HORIONS Wout19BEL1:42:134:53 12.3341senT?l?chargez votre diplome!
207.435VANHAECHT Stef30BEL1:42:144:53 12.3342senWINKSELET?l?chargez votre diplome!
208.589VANHAECHT Bert42BEL1:42:144:53 12.3338h40T?l?chargez votre diplome!
209.372JOSSE Rémi34BEL1:42:154:53 12.3243senFOURONST?l?chargez votre diplome!
210.246HAUMONT Raphael39BEL1:42:164:53 12.3233h35FORVILLET?l?chargez votre diplome!
211.61CHAUVIN Nicolas41BEL1:42:164:53 12.3239h40VINALMONTT?l?chargez votre diplome!
212.212ROCA Ibán42ESP1:42:164:53 12.3240h40BRUXELLEST?l?chargez votre diplome!
213.571HEINS Luc60BEL1:42:164:53 12.327h60BLEGNYT?l?chargez votre diplome!
214.609FFRENKEN Sandra45NLD1:42:194:53 12.323f45T?l?chargez votre diplome!
215.466VOS Bart45BEL1:42:244:53 12.3130h45GEELT?l?chargez votre diplome!
216.313EVERAERT Mathias29BEL1:42:534:54 12.2544senIDEGEMT?l?chargez votre diplome!
217.547JAMMAERS Anthony18BEL1:43:024:55 12.2345senALKENT?l?chargez votre diplome!
218.253FGEMMINK Anne29NLD1:43:034:55 12.234damMAASTRICHTT?l?chargez votre diplome!
219.45LEMAIRE Cédric Maël34BEL1:43:164:56 12.2046senBATTICET?l?chargez votre diplome!
220.245DE KIMPE Xavier42BEL1:43:184:56 12.2041h40ALSEMBERGT?l?chargez votre diplome!
221.127SLABBINCK Joris59BEL1:43:314:56 12.1720h55OOSTKAMPT?l?chargez votre diplome!
222.307STOFFELS Bart41NLD1:43:314:56 12.1742h40BERGEN OP ZOOMT?l?chargez votre diplome!
223.411VRANKEN Harald49NLD1:43:324:56 12.1731h45WEERTT?l?chargez votre diplome!
224.190DE RUYTER Roger47NLD1:43:354:56 12.1632h45MAASTRICHTT?l?chargez votre diplome!
225.157FVISSER Gerry55NLDLAAC TWENTE1:43:414:57 12.152f55BORNET?l?chargez votre diplome!
226.350BUYDENS Guillaume25BELMCP1:43:464:57 12.1447senNEUPRÉT?l?chargez votre diplome!
227.576SANGIOVANNI Cyril25BEL1:43:474:57 12.1448senLIERST?l?chargez votre diplome!
228.11GARSOU Cédric40BEL1:43:474:57 12.1443h40VISÉT?l?chargez votre diplome!
229.374DALLE Frédéric39BEL1:43:474:57 12.1434h35AUDERGHEMT?l?chargez votre diplome!
230.629LISMONDE Dimitri23BEL1:43:474:57 12.1449senLIÈGET?l?chargez votre diplome!
231.352FAGOT Laurent26BELRCAE MISE EN CO1:43:474:57 12.1450senLIEGET?l?chargez votre diplome!
232.145FLEGRAND Francine48BELSKYRUNNER TEAM1:43:474:57 12.144f45LEUZET?l?chargez votre diplome!
233.368MARIJN TULP Marijn36NLD1:43:474:57 12.1435h35SITTARDT?l?chargez votre diplome!
234.267FTHILL Anne-Catherine33BEL1:43:474:57 12.145damBASTOGNET?l?chargez votre diplome!
235.150PAESEN Rik52BEL1:43:484:57 12.1433h50AST?l?chargez votre diplome!
236.177VERVLOET Guido55BELAVZK1:43:484:57 12.1421h55HEIST-OP-DEN-BERGT?l?chargez votre diplome!
237.290DECONINCK Jérôme35BEL1:43:484:57 12.1436h35WASMES A-BT?l?chargez votre diplome!
238.519CERVI Eric53BELJOG'IN ATTITUDE1:43:484:57 12.1434h50BEYNE-HEUSAYT?l?chargez votre diplome!
239.266SCHUTZ Renaud45BEL1:43:484:57 12.1433h45AWIRST?l?chargez votre diplome!
240.219WEERTS Ben35BEL1:43:494:57 12.1437h35REKEMT?l?chargez votre diplome!
241.174FICHET Laurent45BELJACO1:43:494:57 12.1434h45BAILEUXT?l?chargez votre diplome!
242.422DRESCHER Patrick41NLD1:43:504:57 12.1444h40EIJSDENT?l?chargez votre diplome!
243.72LAMBRIKS Robbert46NLD1:43:534:57 12.1335h45MAASTRICHTT?l?chargez votre diplome!
244.51MESOTTEN Dirk48BEL1:43:534:57 12.1336h45HASSELTT?l?chargez votre diplome!
245.173DEWULF Koenraad53BEL1:43:564:57 12.1235h50TORHOUTT?l?chargez votre diplome!
246.384BELLEFROID Jean-Charles19BEL1:43:564:57 12.1251senLIERST?l?chargez votre diplome!
247.447JAMIN Dominique35BELJOG IN ATTITUDE1:44:004:58 12.1238h35LIÈGET?l?chargez votre diplome!
248.439GUCKEL Arnaud26BELTCBM1:44:084:58 12.1052senLIÈGET?l?chargez votre diplome!
249.274FBROUWERS Rani21BEL1:44:304:59 12.066damPEERT?l?chargez votre diplome!
250.136COLA Emmanuel44BEL1:44:324:59 12.0545h40SERAINGT?l?chargez votre diplome!
251.497DEHON Arnaud28BEL1:44:354:59 12.0553senBATTICET?l?chargez votre diplome!
252.530DEGUELDRE Michael24BEL1:44:354:59 12.0554senHOMBOURGT?l?chargez votre diplome!
253.396LIENNE Ralph58BELNEXT ONE1:44:374:59 12.0522h55EUPENT?l?chargez votre diplome!
254.598BEAUJEAN Erik49BEL1:44:384:59 12.0437h45ST- TRUIDENT?l?chargez votre diplome!
255.62LOVELOCK David47GBR1:44:394:59 12.0438h45LONDONT?l?chargez votre diplome!
256.381DUFOUR René59BELJOGGIN'ATTITUDE1:44:405:00 12.0423h55LIEGET?l?chargez votre diplome!
257.208JANSSEN Jimmy33BEL1:44:405:00 12.0455senMAASMECHELENT?l?chargez votre diplome!
258.164FVOGELS Joke36BEL1:44:405:00 12.042f35HEUSDEN-ZOLDERT?l?chargez votre diplome!
259.561SCHRAEPEN David41BEL1:44:405:00 12.0446h40ZONHOVENT?l?chargez votre diplome!
260.566FMEUNIER Maryline33BELMEUNIER1:44:435:00 12.037damBRAINE LE COMTET?l?chargez votre diplome!
260.565NIZET Laurent41BEL1:44:435:00 12.0347h40BRAINE LE COMTET?l?chargez votre diplome!
262.444MENTEN Joren25BELRUN TMC1:44:445:00 12.0356senBORGLOONT?l?chargez votre diplome!
263.200DELHEZ Jean-Francois37BEL1:44:455:00 12.0339h35THIMISTER-CLERMONTT?l?chargez votre diplome!
264.392VANDERBEUKEN Joris35BELRUN TMC1:44:455:00 12.0340h353700T?l?chargez votre diplome!
265.139DE PRIL Filip36BELBEERSELSE JOGGE1:44:475:00 12.0241h35ALSEMBERGT?l?chargez votre diplome!
266.413MEUS Tim28BEL1:45:135:01 11.9857senHOUTHALENT?l?chargez votre diplome!
267.586WAUTHIER Gaetan41BEL1:45:165:01 11.9748h40THUINT?l?chargez votre diplome!
268.599HENNEAUX Daniel47BEL1:45:395:02 11.9339h45HATRIVALT?l?chargez votre diplome!
269.482LACASSE Jean51BEL1:45:395:02 11.9336h50HANNUTT?l?chargez votre diplome!
270.402GROSS-ALT Werner62DEUDJK RASENSPORT 1:45:435:03 11.928h60AACHENT?l?chargez votre diplome!
271.96SIMAL Anthony42BELTEAM PRIVILÈGE 1:45:445:03 11.9249h40NOISEUXT?l?chargez votre diplome!
272.97DENIS Vincent46BELTEAM PRIVILÈGE 1:45:445:03 11.9240h45MARCHE-EN-FAMENNET?l?chargez votre diplome!
273.480PEETERS Gustaaf53BELOEVERLOPERS1:45:485:03 11.9137h50TESTELTT?l?chargez votre diplome!
274.531SEMPELS Joeri36BEL1:45:495:03 11.9142h35NIJLENT?l?chargez votre diplome!
275.344MERCIER Didier43FRA1:45:545:03 11.9050h40PARIST?l?chargez votre diplome!
276.551SCHEPKENS Ijves45BELRUN & FUN GENK1:46:025:03 11.8841h45AST?l?chargez votre diplome!
277.416GIGLIO Gaspare53BELRFCL LIÈGE1:46:065:04 11.8838h50LONCINT?l?chargez votre diplome!
278.103JANS Stijn39BEL1:46:155:04 11.8643h35SINT TRUIDENT?l?chargez votre diplome!
279.124PLEVOETS Stef39BEL1:46:165:04 11.8644h35SINT-TRUIDENT?l?chargez votre diplome!
280.183HERMANS Christian38NLD1:46:205:04 11.8545h35MAASTRICHTT?l?chargez votre diplome!
281.236ROTTIERS Walter64BEL1:46:285:05 11.849h60DEURNET?l?chargez votre diplome!
282.568BREUER Bertrand47BEL1:46:455:05 11.8042h45PETIT-RECHAINT?l?chargez votre diplome!
283.155VANCAUWENBERGHS Guy55BEL1:46:465:06 11.8024h55BEERZEL BELGIËT?l?chargez votre diplome!
284.597HAAN John60NLD1:46:465:06 11.8010h60LANDGRAAFT?l?chargez votre diplome!
285.233MERCKEN Geert47BEL1:46:475:06 11.8043h45BORGLOONT?l?chargez votre diplome!
286.525SCHIDLO Eric39BELKNAUF1:46:545:06 11.7946h35VISÉT?l?chargez votre diplome!
287.579STEFANO Gianni40BEL1:46:585:06 11.7851h40RIEMSTT?l?chargez votre diplome!
288.615BIESMANS Patrick49BEL1:46:585:06 11.7844h45MAASMECHELENT?l?chargez votre diplome!
289.613POSSEN Gert-Jan31BEL1:46:595:06 11.7858senT?l?chargez votre diplome!
290.621FVERVAEKE Els45BEL1:46:595:06 11.785f45PULLET?l?chargez votre diplome!
291.385STEENHAUT Hans54BELTRIATH1:47:005:06 11.7839h50ELLEZELLEST?l?chargez votre diplome!
292.235PAUMEN Laurent27BEL1:47:015:06 11.7859senMAASEIKT?l?chargez votre diplome!
293.377FDUYCK Anja50BEL1:47:015:06 11.771f50MEISET?l?chargez votre diplome!
294.269VAN LAER Joost28BEL1:47:015:06 11.7760senSCHERPENHEUVEL-ZICHEMT?l?chargez votre diplome!
295.389WYNS Wim47BEL1:47:015:06 11.7745h45MEISET?l?chargez votre diplome!
296.408PIERRET Claude49BEL1:47:025:06 11.7746h45ATHUST?l?chargez votre diplome!
297.240VAN KUPPEVELD Ewald57NLD1:47:025:06 11.7725h55GRONINGENT?l?chargez votre diplome!
298.311VAN QUEKELBERGHE Peter42BELETENGHIEN1:47:025:06 11.7752h40HERNET?l?chargez votre diplome!
299.13VANDEWIELE Bart40BEL1:47:025:06 11.7753h40DRONGENT?l?chargez votre diplome!
300.535VANAKEN Patrick57BELGEMSJOGGERS DIE1:47:025:06 11.7726h55DIEPENBEEKT?l?chargez votre diplome!
301.375SMETS Stany55BEL1:47:035:06 11.7727h55ZEPPERENT?l?chargez votre diplome!
302.603SCHOLZ Karl62BEL1:47:035:06 11.7711h60ALKENT?l?chargez votre diplome!
303.293VAN BELLEGHEM Bart50BEL1:47:035:06 11.7740h50DE PINTET?l?chargez votre diplome!
304.398FABRY Gaetan29BEL1:47:035:06 11.7761senWANFERCEE-BAULETT?l?chargez votre diplome!
305.485OTTEN Yannic38BEL1:47:035:06 11.7747h35OUPEYET?l?chargez votre diplome!
306.605VAN OERS Marco49BEL1:47:045:06 11.7747h45VILVOORDET?l?chargez votre diplome!
307.314BEX Jo38BEL1:47:045:06 11.7748h35HERK-DE-STADT?l?chargez votre diplome!
308.182VAN BAELEN Michiel39BELMICHIEL VAN BAE1:47:045:06 11.7749h35HERK-DE-STADT?l?chargez votre diplome!
309.204FRANSSEN Jean-Francois47BEL1:47:055:06 11.7748h45AUBELT?l?chargez votre diplome!
310.424SZYMON Rutkowski43POL1:47:075:07 11.7654h40AUDERGHEMT?l?chargez votre diplome!
311.296MAURIZIO Pignotti50ITA1:47:105:07 11.7641h50ROMAT?l?chargez votre diplome!
312.417LEIJNEN Sven43BEL1:47:135:07 11.7555h40MELDERTT?l?chargez votre diplome!
313.259MENGONI Luigi46ITAOLIMPIA MARZOCC1:47:135:07 11.7549h45VIVEGNIST?l?chargez votre diplome!
314.213WATAR Francis44BELBC RETINNE1:47:155:07 11.7556h40RETINNET?l?chargez votre diplome!
315.276FGAMME Doriane32BELTHEODOTEMPO1:47:185:07 11.748damSOIGNIEST?l?chargez votre diplome!
316.539LEFEBVRE Paulin37BELTHEODO TEMPO1:47:185:07 11.7450h35SAINT-DENIST?l?chargez votre diplome!
317.477DE WANDEL Chris44BEL1:47:255:07 11.7357h40SINT-LIEVENS-HOUTEMT?l?chargez votre diplome!
318.17VAN DE VELDE Kurt49BEL1:47:265:07 11.7350h45LOVENDEGEMT?l?chargez votre diplome!
319.184FDIRIX Dora57BELDCLA - OEVERLOP1:47:275:07 11.733f55DONKT?l?chargez votre diplome!
320.582FVAN BOVEN Christel53BEL1:47:275:07 11.732f50SINT-NIKLAAST?l?chargez votre diplome!
321.280QUINTELIER David46BELKREKENLOPERS1:47:335:08 11.7251h45RUISELEDET?l?chargez votre diplome!
322.261OLIVIER Bravin33BEL1:47:355:08 11.7162senEREZEET?l?chargez votre diplome!
323.580ROBA Alexandre51BEL1:47:435:08 11.7042h50WATERLOOT?l?chargez votre diplome!
324.343BRAGARD Jean-Michel54BEL1:47:495:09 11.6943h50ANDRIMONTT?l?chargez votre diplome!
325.186VELARDO Fabio50ITA1:47:585:09 11.6744h50WEZEMBEEK - OPPEMT?l?chargez votre diplome!
326.197BAEL Danny55BEL1:48:205:10 11.6328h55NINOVE-VOORDET?l?chargez votre diplome!
327.283DECOCK Maarten35BEL1:48:235:10 11.6351h35GENTBRUGGET?l?chargez votre diplome!
328.418DE BRABANDER Mark48BEL1:48:315:11 11.6152h45WELLENT?l?chargez votre diplome!
329.494KRAUSE Karsten46DEURUNNING TEAM GR1:48:565:12 11.5753h45DUSSELDORFT?l?chargez votre diplome!
330.502FVAN GINDERACHTER Nele37BEL1:49:325:13 11.503f35ERPE-MERET?l?chargez votre diplome!
331.342LEFEVRE Gert48BEL1:49:325:13 11.5054h45SINT-LIEVENS-HOUTEMT?l?chargez votre diplome!
332.518FCALAPRISTI Christine51ITACERCLE OMNISPOR1:50:195:16 11.423f50HEER AGIMONTT?l?chargez votre diplome!
333.91LAMBERT Lionel40BEL1:50:395:17 11.3958h40VISÉT?l?chargez votre diplome!
334.510ULRICI Michel34BELCHC1:51:135:18 11.3363senVISET?l?chargez votre diplome!
335.511ULRICI Olivier31BELCHC1:51:135:18 11.3364senAUT?l?chargez votre diplome!
336.484POULUSSEN Erwin53BELACKO1:51:185:18 11.3245h50ERPS-KWERPST?l?chargez votre diplome!
337.214BOCHENKOV Yury35RUS1:52:025:21 11.2552h35IXELLEST?l?chargez votre diplome!
338.77PARTOUNS Philippe37BEL1:52:575:23 11.1653h35LIXHET?l?chargez votre diplome!
339.538VANHOOVELS Marc60BEL1:53:465:26 11.0812h60SPRENDLINGENT?l?chargez votre diplome!
340.167KNOCKAERT Pascal46BELJCPMF RAMILLIES1:54:345:28 11.0055h45RAMILLIEST?l?chargez votre diplome!
341.301VISKENS Jasper30BEL1:54:465:28 10.9865senBOOISCHOTT?l?chargez votre diplome!
342.338MERCHIN David38FRACAF FORESTOISE1:55:475:31 10.8854h35BELGIQUET?l?chargez votre diplome!
343.504FLARCHER DE BRITO M Virginia62PRT1:56:085:32 10.851f60KRAAINEMT?l?chargez votre diplome!
344.486LOGIST Bart30BEL1:56:095:32 10.8566senLEUVENT?l?chargez votre diplome!
345.514FKOLP Virginie37BELETENGHIEN1:56:385:34 10.804f35BRAINE-LE-COMTET?l?chargez votre diplome!
346.515KOLP Christian64BELETENGHIEN1:56:385:34 10.8013h60BRAINE-LE-COMTET?l?chargez votre diplome!
347.453MARQUEGNIES Valentin22BEL1:56:385:34 10.8067senLESSINEST?l?chargez votre diplome!
348.386NELHIEBEL Gyula54BEL1:56:425:34 10.8046h50PETIT-RECHAINT?l?chargez votre diplome!
349.360FORAMITTI Laurent45BEL1:56:475:34 10.7956h45ROCOURTT?l?chargez votre diplome!
350.303KHRONIS Manuel53BELMARATHON POUR L1:56:475:34 10.7947h50OLNET?l?chargez votre diplome!
351.370BERGHMANS Jean-Claude52BEL1:56:495:34 10.7948h50ANDERLECHTT?l?chargez votre diplome!
352.179BONTINCKX Frankie58BELAC DENDERLAND1:56:515:34 10.7829h55DENDERMONDET?l?chargez votre diplome!
353.328VAN GRONINGEN Gertjan54NLD1:56:515:34 10.7849h50COTHENT?l?chargez votre diplome!
354.93MARTIN Frédéric33BEL1:57:025:35 10.7768senLA LOUVIÈRET?l?chargez votre diplome!
355.151PARISSE Christian48BEL1:57:195:36 10.7457h45SAINT-GEORGEST?l?chargez votre diplome!
356.118DECOSTER Gerrit47BEL1:57:195:36 10.7458h45ROTSELAART?l?chargez votre diplome!
357.622DETRIXHE Christophe42BELWAC1:57:205:36 10.7459h40WAREMMET?l?chargez votre diplome!
358.168WINNEN Paul63BEL1:57:295:36 10.7314h60VELTEM-BEISEMT?l?chargez votre diplome!
359.92FVERBERT Greet41BEL1:57:465:37 10.704f40BRASSCHAATT?l?chargez votre diplome!
360.87MATTHYSSEN Julien65BELAC BRAEK1:57:465:37 10.701h65BRASSCHAATT?l?chargez votre diplome!
361.247FPURNODE Stéphanie35BEL1:57:475:37 10.705f35GOUY-LEZ-PIETONT?l?chargez votre diplome!
362.112DESNYDER Henk44BEL1:57:485:37 10.7060h40WILSELET?l?chargez votre diplome!
363.111FVANDE VOORDE Anneke35BEL1:57:495:37 10.706f35WILSELET?l?chargez votre diplome!
364.98RAUTENHAUS Mark45DEUKA-RO ELECTRONI1:57:495:37 10.7059h45ROETGENT?l?chargez votre diplome!
365.206HECKER Robert54NLDATLETIEK MAASTR1:57:595:38 10.6850h50MAASTRICHTT?l?chargez votre diplome!
366.492TITS Samuel38BEL1:58:155:38 10.6655h35OUPEYET?l?chargez votre diplome!
367.347ROELEVELD Wilbert63NLD1:58:165:38 10.6615h60WIJK BIJ DUURSTEDET?l?chargez votre diplome!
368.353LUQUE Christian51BELFACERUNNING1:58:165:38 10.6551h50PONT DE LOUPT?l?chargez votre diplome!
369.574FLAMBERT Chantal45NLD1:58:165:38 10.656f45AV EIJSDENT?l?chargez votre diplome!
370.146MANSVELDERS Wilco50NLD1:58:165:38 10.6552h50HELMONDT?l?chargez votre diplome!
371.71DE FROIDMONT Patrick44BELBERNEAU JOGGING1:58:175:38 10.6561h40BERNEAUT?l?chargez votre diplome!
372.577NIESTE Andre58NLD1:58:175:38 10.6530h55LANAKENT?l?chargez votre diplome!
373.239THERERE Jeanphilippe43BEL1:58:195:39 10.6562h40MARCHE-EN-FAMENNET?l?chargez votre diplome!
374.156VANDEN BOSSCHE Nicolas23BEL1:58:195:39 10.6569senWEMMELT?l?chargez votre diplome!
375.308FLAGOTHIER Pierre37BEL1:58:195:39 10.6556h35TILFFT?l?chargez votre diplome!
376.161DE LEE Johan49BEL1:58:205:39 10.6560h45ZWIJNDRECHTT?l?chargez votre diplome!
377.285MORANA Eduardo50ITASERAING ATH1:58:215:39 10.6553h50SAINT NICOLAST?l?chargez votre diplome!
378.501LHOEST Nicolas31BELMAGPIE HUY1:58:225:39 10.6570senAMAYT?l?chargez votre diplome!
379.407NICAISE Rémy31BEL1:58:255:39 10.6471senGRIVEGNÉET?l?chargez votre diplome!
380.441BOVIN Patrick51BEL1:58:265:39 10.6454h50SINT-TRUIDENT?l?chargez votre diplome!
381.614WINKEL Bart49BELATLA1:58:285:39 10.6461h45MAASMECHELENT?l?chargez votre diplome!
382.351CLOVIN Daniël51BELMMC1:58:395:39 10.6255h50LAARNET?l?chargez votre diplome!
383.318TEJ PAL Singh30INDJUST RUNNERS1:59:265:42 10.5572senEVERET?l?chargez votre diplome!
384.399GERTRUDA Julien28BEL1:59:355:42 10.5473senVISÉT?l?chargez votre diplome!
385.205FHARBECK Rebecca22USA2:00:055:44 10.499damSKOKIET?l?chargez votre diplome!
386.383FGREVENDONK Lotte27BEL2:00:115:44 10.4910damMAASTRICHTT?l?chargez votre diplome!
387.379FBEERTEN Petra43BEL2:00:145:44 10.485f40HASSELTT?l?chargez votre diplome!
388.393FGOETTSCH Dieuwertje28NLD2:00:145:44 10.4811damAMSTERDAMT?l?chargez votre diplome!
389.557FDURDURE Angélique43BELZATOPEK2:00:155:44 10.486f40HACCOURTT?l?chargez votre diplome!
390.483LOCKMAN Denis34BELJOGIN BASTOGNE 2:00:395:45 10.4474senBASTOGNET?l?chargez votre diplome!
391.545HAQUIN Pierre-Alexandre42BEL2:00:455:45 10.4463h40ROSSIGNOLT?l?chargez votre diplome!
392.105FOLSSON Solveig62SWETEAM BLEKINGE2:00:475:46 10.432f60KARLSKRONAT?l?chargez votre diplome!
393.228CATALE Dante46BEL2:00:485:46 10.4362h45MAGNÉET?l?chargez votre diplome!
394.291DE BECKER Guy65BEL2:01:225:47 10.382h65HEINSTERT-ATTERTT?l?chargez votre diplome!
395.625CIARNIELLO Fabrice42BEL2:01:225:47 10.3864h40BEYNE-HEUSAYT?l?chargez votre diplome!
396.602FBRUZZESE Nathalie40BEL2:01:295:48 10.377f40T?l?chargez votre diplome!
397.376WINTGENS Marc58BEL2:01:295:48 10.3731h55STEMBERTT?l?chargez votre diplome!
398.279FCOLLARD Sophie40BEL2:01:375:48 10.368f40BANDET?l?chargez votre diplome!
399.244FCOLSON Delphine40BEL2:01:375:48 10.369f40BARVAUX CONDROZT?l?chargez votre diplome!
400.304FDETHIER Chantal45BEL2:01:375:48 10.367f45MEANT?l?chargez votre diplome!
401.423BEMONG Marc70BELKNOET2:01:375:48 10.361h70HOUWAARTT?l?chargez votre diplome!
402.322FDERAEVE Annick46BEL2:01:375:48 10.368f45ZWIJNAARDET?l?chargez votre diplome!
403.320FGOYVAERTS Annemie51BEL2:01:395:48 10.364f50GELRODET?l?chargez votre diplome!
404.463OLIVIER Jean-Christophe41BELASPIRUN2:02:015:49 10.3365h40MORTIERT?l?chargez votre diplome!
405.292SMETS Loïc38BEL2:02:025:49 10.3357h35KURINGENT?l?chargez votre diplome!
406.217KRISCHER Stefan38DEU2:02:045:49 10.3258h35LANGERWEHET?l?chargez votre diplome!
407.229FGEUENICH Stefanie37DEULT SCHLEICH2:02:065:49 10.327f35LANGERWEHET?l?chargez votre diplome!
408.234FOSTERHOLT Daniela36DEULT SCHLEICH2:02:065:49 10.328f35LANGERWEHET?l?chargez votre diplome!
409.546BURGELMAN Filip51BEL2:02:075:49 10.3256h50KOEKELBERGT?l?chargez votre diplome!
410.210FNOLMANS Goele30BEL2:02:085:49 10.3212damBILZENT?l?chargez votre diplome!
411.604FELIA Laura28BEL2:02:095:49 10.3213damT?l?chargez votre diplome!
412.606FBOONEN Elke31BEL2:02:095:49 10.3214damT?l?chargez votre diplome!
413.166FCORSTENS Rietje70NLD2:02:135:50 10.311f70BERGEN OP ZOOMT?l?chargez votre diplome!
414.237FRUTZ Saskia40CHE2:02:135:50 10.3110f40HOSENRUCKT?l?chargez votre diplome!
415.109DELMOTTE Yves65BEL2:02:315:51 10.293h65CHÂTELETT?l?chargez votre diplome!
416.555BECKERS Alexandre24BEL2:02:325:51 10.2875senSAINT REMYT?l?chargez votre diplome!
417.181FFUCHS Lisa30DEU2:02:365:51 10.2815damEYNATTENT?l?chargez votre diplome!
418.130PIRE Raphael46BEL2:02:365:51 10.2863h45LIXHET?l?chargez votre diplome!
419.395FANCION Valerie41BEL2:02:395:51 10.2711f40AUBELT?l?chargez votre diplome!
420.496SCHROEDER Hans-Willi62DEU2:03:175:53 10.2216h60JUELICHT?l?chargez votre diplome!
421.610FBLONTROCK Louise28BEL2:03:205:53 10.2216damGENTT?l?chargez votre diplome!
422.569PERIOT Laurent56FRAHDMAC2:03:205:53 10.2232h55DOURDANT?l?chargez votre diplome!
423.456FLOCHT Audrey24BELCHC2:03:215:53 10.2217damVISÉT?l?chargez votre diplome!
424.252FDUPONT Isabelle44BELISABELLE DUPONT2:03:215:53 10.2212f40BANDE - NASSOGNET?l?chargez votre diplome!
425.82FAUCON Patrick56FRA2:03:315:53 10.2033h55AACHENT?l?chargez votre diplome!
426.194FDETHOREY Christelle46FRAACGV2:03:335:53 10.209f45ECROUVEST?l?chargez votre diplome!
427.516LAUVERGNE Vincent42FRATRIATHLON CLUB 2:03:375:54 10.1966h40DIJONT?l?chargez votre diplome!
428.268VAN DER VELDE Arjan48NLDHARDLOPEN.NL2:03:375:54 10.1964h45NIEUW-BEIJERLANDT?l?chargez votre diplome!
429.169FWINTERS Kristine42BELJOGGING CLUB RU2:03:385:54 10.1913f40NIEL-BIJ-AST?l?chargez votre diplome!
430.493SCHIJNS Tom32BEL2:03:385:54 10.1976senHEVERLEET?l?chargez votre diplome!
431.532MUSONI MURASA Jean37BEL2:03:455:54 10.1859h35BRUXELLEST?l?chargez votre diplome!
432.333FGIANGIORDANO Anne48BELHACCOURT SANTÉE2:03:475:54 10.1810f45HEURE-LE-ROMAINT?l?chargez votre diplome!
433.400SIPERS Henk63NLDRON FOR RUN MAA2:03:535:54 10.1717h60MAASTRICHTT?l?chargez votre diplome!
434.391MARZULLO Girolamo48ITA2:04:035:55 10.1665h45NIVELLEST?l?chargez votre diplome!
435.467DOELEMAN Davy39NLD2:04:045:55 10.1660h35BASSENGET?l?chargez votre diplome!
436.470FWALSTOCK-MULDERS Nicole40NLD2:04:055:55 10.1514f40LANAKENT?l?chargez votre diplome!
437.24HASTIR Olivier42BEL2:04:065:55 10.1567h40MOHIVILLET?l?chargez votre diplome!
438.349BUYDENS Jean-Marc52BEL2:04:105:55 10.1557h50NEUPRÉT?l?chargez votre diplome!
439.426VISSCHERS Johan63NLD2:04:155:55 10.1418h60ELSLOOT?l?chargez votre diplome!
440.142FLORAM Gianni46BEL2:04:315:56 10.1266h45FLÉMALLET?l?chargez votre diplome!
441.591LYNEN Dirk55BEL2:05:005:58 10.0834h55T?l?chargez votre diplome!
442.481LEFORT Laurent49FRA2:05:145:58 10.0667h45MAASTRICHTT?l?chargez votre diplome!
443.298KHATAVKAR Vinayak43NLD2:05:155:58 10.0668h40MAASTRICHTT?l?chargez votre diplome!
444.159GERADON Jean-François44BELFLEMALLE ATHLET2:05:175:58 10.0669h40FLEMALLET?l?chargez votre diplome!
445.524DENIS Arnaud32BELKNAUF2:05:516:00 10.0177senANDENNET?l?chargez votre diplome!
446.132ZSOLT Radics48HUNGL8 SPORT2:06:066:01 9.9968h45KÖLNT?l?chargez votre diplome!
447.122FMEGYERI Ferencne44HUN2:06:066:01 9.9915f40KÖLNT?l?chargez votre diplome!
448.147MARIVOET Tom41BEL2:06:186:01 9.9870h40ERPS-KWERPST?l?chargez votre diplome!
449.405FDE WIT Vera27NLD2:06:576:03 9.9318damSUSTERENT?l?chargez votre diplome!
450.620GEYS Robert70BEL2:07:356:05 9.882h70T?l?chargez votre diplome!
451.73BRASSELLE Christian60BELJCPMF JUPRELLE2:07:486:06 9.8619h60SLINST?l?chargez votre diplome!
452.255FKAMINSKAS Kertu28EST2:07:506:06 9.8619damMAASTRICHTT?l?chargez votre diplome!
453.479SPONNIK Bjorn28NLD2:07:526:06 9.8578senLANAKENT?l?chargez votre diplome!
454.584COOPMAN Jonas29BEL2:08:266:07 9.8179senT?l?chargez votre diplome!
455.325BREMS Gunter43BEL2:08:266:07 9.8171h40GEETBETST?l?chargez votre diplome!
456.110VAN ACKER Thierry59FRA2:08:276:07 9.8135h55VILLENEUVE D'ASCQT?l?chargez votre diplome!
457.135FBEUVENS Bianca39BELJCP2:08:296:08 9.819f35GEMMENICHT?l?chargez votre diplome!
458.141DROOGHAAG Patrick36BELJCP2:08:296:08 9.8161h35GEMMENICHT?l?chargez votre diplome!
459.330FOLIVIER Stephanie47FRA2:08:476:08 9.7811f45LILLET?l?chargez votre diplome!
460.18DUCHATEAU René50BEL2:09:066:09 9.7658h50BINKOMT?l?chargez votre diplome!
461.140DELGIJER Marc58NLD2:09:386:11 9.7236h55PRINSENBEEKT?l?chargez votre diplome!
462.81DENEUMOSTIER Jérôme33BEL2:09:426:11 9.7280senHUYT?l?chargez votre diplome!
463.120FERKET Alex45NLDRUN EN FUN2:09:556:12 9.7069h45AST?l?chargez votre diplome!
464.226WULZ, DR. Valentin73AUTKLC-KLAGENFURT2:09:556:12 9.703h70KLAGENFURTT?l?chargez votre diplome!
465.495FNIVELLE Nele40BEL2:09:556:12 9.7016f40BILZENT?l?chargez votre diplome!
466.257LASCHET Anthony22BEL2:09:566:12 9.7081senWELKENRAEDTT?l?chargez votre diplome!
467.362FWILLEMS Jonne29NLD2:10:056:12 9.6920damNEERBEEKT?l?chargez votre diplome!
468.452JANSSENS Roland58BELTORTUES MESLINO2:10:276:13 9.6637h55LENST?l?chargez votre diplome!
469.317AMBUHL Vincent50CHEBERLINUS2:10:406:14 9.6459h50BRUXELLEST?l?chargez votre diplome!
470.278FZANIER Valeria48ITA2:10:576:15 9.6212f45LEUVENT?l?chargez votre diplome!
471.355DIRICKS Michael41BEL2:11:046:15 9.6172h40OUPEYET?l?chargez votre diplome!
472.432BAIOCCHI Luca46BELCHC2:11:166:16 9.6070h45CHERATTET?l?chargez votre diplome!
473.256KLEIN Hughes52LUX2:11:316:16 9.5860h50MARCHE EN FAMENNET?l?chargez votre diplome!
474.508ROMPEN Thibaut42BEL2:11:526:17 9.5673h40SOUMAGNET?l?chargez votre diplome!
475.258FLAWARRÉE Audrey39BELWRC LIERNEUX2:11:536:17 9.5510f35LIERNEUXT?l?chargez votre diplome!
476.265FSAUVAGE Catherine40BELWRC LIERNEUX2:11:546:17 9.5517f40LIERNEUXT?l?chargez votre diplome!
477.507KROENER Michael46DEU2:12:036:18 9.5471h45TONGERENT?l?chargez votre diplome!
478.249FBORGIGNONS Christianne39NLD2:12:076:18 9.5411f35MAASTRICHTT?l?chargez votre diplome!
479.39PEELMAN Nico Casa Verde50BEL2:12:116:18 9.5361h50DENDERMONDET?l?chargez votre diplome!
480.262RASKINET Philippe48BELAR-DUO SPRL2:12:116:18 9.5372h45HERMALLE-SOUS-ARGENTEAUT?l?chargez votre diplome!
481.560FVAN DOOREN Petra43BEL2:12:116:18 9.5318f40BURCHTT?l?chargez votre diplome!
482.358HENRIOULLE Jérôme23BEL2:12:126:18 9.5382senCHÂTELETT?l?chargez votre diplome!
483.54FCHIF Frédérique34BEL2:12:126:18 9.5321damMONT-SUR-MARCHIENNET?l?chargez votre diplome!
484.188HERTELEER Christian68BEL2:12:136:18 9.534h65BELLEMT?l?chargez votre diplome!
485.443FLELIE Cynthia28BEL2:12:136:18 9.5322damZELET?l?chargez votre diplome!
486.520CLAEREBOUDT Jan56BEL2:12:146:18 9.5338h55LINTT?l?chargez votre diplome!
487.618DE KEYSER Gust70BEL2:12:146:18 9.534h70VLEZENBEEKT?l?chargez votre diplome!
488.113DUYKERS Gaston57NLDMAASRUNNERS2:12:146:18 9.5339h55GRONSVELDT?l?chargez votre diplome!
489.41FJUSTEN Lydia56DEULG LAACHER SEE2:12:146:18 9.534f55MONREALT?l?chargez votre diplome!
490.42JUSTEN Harald55DEULG LAACHER SEE2:12:156:18 9.5340h55MONREALT?l?chargez votre diplome!
491.107FBOSCO Cathy41BEL2:12:156:18 9.5319f40PETIT RECHAINT?l?chargez votre diplome!
492.397BASTIEN François38BEL2:12:266:19 9.5162h35GEMBLOUXT?l?chargez votre diplome!
493.78MCDONALD Alistair19FRA2:12:336:19 9.5183senMAASTRICHTT?l?chargez votre diplome!
494.144LEDENT Nicolas30BEL2:12:366:19 9.5084senLAMBERMONTT?l?chargez votre diplome!
495.104MERLAN Frederic33BEL2:12:366:19 9.5085senSAIVET?l?chargez votre diplome!
496.180FGROGNET Sonia56BELJAMES2:12:436:20 9.495f55LOUVAIN-LA-NEUVET?l?chargez votre diplome!
497.611FDE WEVER Lore28BEL2:12:556:20 9.4823damT?l?chargez votre diplome!
498.28FTANCREDI-LERUTH Isabelle45BEL2:13:036:21 9.4713f45ARGENTEAUT?l?chargez votre diplome!
499.509MESSINA Michel45BEL2:13:326:22 9.4473h45OLNET?l?chargez votre diplome!
500.329DALLE Mathias43FRA2:13:436:23 9.4274h40HEURE LE ROMAINT?l?chargez votre diplome!
DNF: did not finish; DSQ: disqualified; Speed in km/h
Page: [1] 2